Theta_e
317 316 317 317 318 314 313 311 310 311 318 323 325 326 327 327 326 326 326 326 327 327 327 328 328 329 330 330 330 331 330 330 332 331 329 327 326 324 320 319 318 319 322
318 317 316 316 317 318 318 318 317 320 323 325 326 327 328 328 327 327 327 327 327 328 328 328 328 328 330 330 330 330 330 330 330 330 329 330 327 323 322 322 322 321 321
315 315 314 313 313 314 316 320 321 322 323 323 325 325 324 324 324 325 326 326 326 328 328 328 328 328 330 330 330 330 329 329 329 328 327 326 326 324 321 321 319 320 324
312 311 310 311 310 310 311 313 314 314 316 318 321 322 324 325 325 324 325 326 326 326 326 327 328 328 330 330 330 329 329 328 327 326 326 324 324 325 326 326 326 325 325
310 309 307 307 307 307 309 309 311 311 311 312 315 316 324 324 324 323 324 323 321 323 325 327 328 328 329 329 328 328 327 327 327 325 324 324 323 324 326 328 328 325 326
307 306 305 305 305 305 307 307 307 307 307 308 311 311 311 314 316 315 314 314 315 317 319 323 326 327 327 327 327 327 326 325 325 323 323 323 323 323 324 325 325 325 324
306 305 304 303 303 303 303 304 303 304 303 304 306 307 308 306 307 307 308 308 310 311 315 319 320 324 326 327 326 325 324 324 323 323 322 322 322 323 323 324 323 323 323
304 303 303 302 302 302 302 302 302 301 302 302 302 302 305 303 303 305 304 304 306 307 309 314 316 316 319 322 324 323 324 323 322 322 322 321 320 320 321 322 323 324 324
304 303 302 301 301 300 300 300 300 299 299 300 301 300 301 301 301 302 302 302 302 303 306 308 310 311 312 314 316 317 319 322 322 321 320 321 321 322 321 322 322 323 324
304 303 301 300 300 299 299 299 299 298 297 297 297 297 296 296 296 296 296 298 299 299 301 302 303 305 306 307 311 310 311 314 316 317 321 322 322 322 321 322 323 323 323
304 303 302 300 300 299 298 299 298 296 295 294 294 294 294 294 294 294 294 294 294 295 295 296 298 301 302 303 304 305 306 308 308 309 312 314 318 321 322 322 323 323 323
305 304 302 300 298 297 297 297 297 294 293 293 293 293 293 293 293 292 293 293 293 292 293 294 294 295 297 298 300 301 302 303 304 304 305 307 309 312 314 317 319 320 321
305 303 302 301 299 297 296 295 295 295 293 293 293 292 292 292 292 292 291 291 292 292 292 292 292 293 294 295 295 295 296 297 299 301 303 304 306 308 308 310 312 316 318
305 304 302 302 300 296 295 294 294 293 293 293 293 292 292 291 291 291 291 291 291 291 291 291 291 291 292 293 295 295 295 295 295 296 298 300 302 303 304 305 307 308 310
304 304 303 302 300 297 294 293 292 292 292 292 292 292 291 291 291 291 290 290 290 290 290 290 290 290 290 290 292 294 294 294 293 294 295 296 297 297 300 302 304 304 305
305 304 303 302 300 298 295 293 292 292 291 291 291 291 291 291 291 290 290 290 290 289 289 289 289 289 289 287 290 292 292 292 292 292 293 294 294 295 296 298 299 300 303
305 304 303 302 300 297 295 294 292 291 291 291 291 290 290 291 290 290 289 289 289 289 288 288 288 288 287 287 288 290 290 291 291 291 292 292 292 294 295 295 296 298 300
305 304 303 301 299 295 293 292 291 291 291 291 291 290 290 289 289 288 288 288 288 288 288 287 287 287 286 286 287 288 288 289 290 290 291 291 291 291 293 294 295 295 296
304 303 302 300 296 293 291 291 291 291 291 290 289 289 288 287 287 287 287 287 287 287 287 287 287 286 286 286 286 287 287 288 289 289 289 290 290 290 290 291 293 294 295
301 300 298 295 293 292 291 291 291 290 289 289 288 287 287 287 287 286 286 286 286 286 286 286 286 286 286 285 285 286 287 288 288 289 289 290 289 289 290 290 291 291 292
299 297 295 294 293 291 290 290 289 288 288 287 286 286 286 286 285 285 285 285 285 285 285 285 285 285 285 285 285 286 287 287 288 288 289 289 289 289 289 290 290 290 291
296 295 294 293 291 289 288 288 288 287 286 285 285 285 285 285 284 285 285 285 285 285 285 285 285 285 285 285 285 286 286 287 287 288 288 288 288 289 289 289 289 289 289
294 292 292 291 288 287 286 287 287 285 285 285 285 285 284 284 284 284 284 284 284 284 284 284 284 285 285 285 285 285 285 286 287 287 288 288 288 288 288 288 288 287 287
292 291 290 289 288 286 286 286 285 284 284 285 285 284 284 284 284 284 284 284 284 283 283 284 284 285 285 285 285 285 285 286 286 287 287 287 287 288 288 288 286 286 286
291 290 289 288 287 286 286 285 284 284 284 284 284 284 284 284 284 284 283 283 283 283 283 283 284 284 284 284 284 285 285 285 285 286 286 287 287 287 287 287 286 286 286
290 289 288 287 287 285 285 284 284 283 283 284 284 284 284 284 283 282 282 282 282 282 282 282 283 283 283 283 284 284 284 284 285 285 286 287 287 287 287 287 286 286 285
Wind_Speed
10 13 15 17 18 16 18 18 17 19 16 14 12 13 14 13 14 15 16 18 19 21 21 22 23 23 25 27 26 28 28 29 27 19 20 24 26 27 28 24 24 26 24
12 13 16 17 16 14 10 10 12 13 14 12 10 7 6 8 11 11 14 17 20 22 23 23 24 25 27 29 29 29 28 31 29 20 17 10 24 25 26 22 21 25 27
13 13 15 15 15 16 16 8 3 6 7 7 7 5 6 8 11 13 16 20 23 23 26 28 27 27 28 29 28 30 33 29 28 31 15 4 8 16 26 28 28 28 33
12 11 14 17 16 17 15 12 10 9 5 6 4 5 9 11 12 13 16 22 24 26 28 30 31 32 30 30 30 33 39 38 27 25 33 25 11 6 5 10 17 27 29
10 11 15 15 15 13 14 11 13 16 16 13 11 8 8 9 8 4 6 9 11 15 22 25 28 30 30 28 30 29 29 30 26 25 22 32 16 13 1 6 7 11 16
9 11 15 15 15 16 17 18 18 21 18 18 18 15 15 9 5 6 7 9 10 16 16 16 26 30 29 28 29 29 33 29 25 20 21 21 20 14 8 4 5 7 22
9 10 11 16 18 21 20 20 22 20 20 22 23 20 17 14 14 10 10 13 18 20 22 20 18 9 26 30 27 27 28 30 28 24 21 22 20 15 9 9 9 9 25
7 9 13 14 14 18 18 19 21 19 21 22 18 16 22 13 13 18 14 13 15 16 19 19 20 21 14 4 5 11 22 24 25 26 26 23 20 21 18 16 12 7 9
7 8 11 13 13 14 15 15 14 15 14 13 15 13 15 16 14 17 14 16 18 19 18 21 20 19 18 16 17 15 9 13 23 25 24 25 24 24 24 26 29 22 10
6 6 7 9 8 9 8 10 9 9 11 12 12 14 14 15 14 13 13 16 16 17 18 18 19 18 19 18 16 15 14 11 14 12 14 27 25 27 29 30 29 27 21
4 2 3 5 7 7 7 6 7 8 9 10 11 10 11 14 14 15 15 15 16 18 18 18 17 16 18 18 17 16 16 15 14 14 13 15 9 15 28 33 30 27 27
4 2 3 3 3 4 4 5 6 8 9 9 9 10 11 12 13 13 14 15 15 16 16 17 16 17 15 16 16 15 14 13 12 14 14 14 16 16 14 14 12 12 14
6 6 4 3 2 1 3 4 5 6 7 8 9 10 11 11 12 13 13 13 14 15 15 16 16 15 15 14 14 13 14 14 13 13 13 12 12 12 13 15 16 14 16
7 6 5 4 2 1 3 5 6 7 7 7 8 9 10 11 12 12 13 13 14 14 14 13 13 14 13 13 15 15 14 13 13 13 12 11 11 12 13 13 13 14 17
8 7 6 5 3 2 1 1 1 2 3 3 4 5 4 5 6 9 10 12 12 13 14 15 15 15 14 13 16 15 14 14 15 14 13 12 14 14 12 12 13 13 13
9 8 7 6 5 3 2 2 1 2 3 3 4 4 5 7 9 11 12 12 12 12 12 12 12 13 13 16 17 17 17 16 16 15 15 15 16 14 17 15 15 15 15
10 9 9 8 6 5 3 2 3 4 5 5 7 8 9 9 10 12 13 12 13 13 13 12 12 13 13 14 17 16 16 16 16 16 17 17 15 16 16 17 17 17 17
11 10 10 7 4 2 1 1 2 4 6 7 10 11 12 13 14 14 13 13 14 13 14 14 14 15 14 16 17 17 16 15 16 15 16 16 16 16 17 19 20 19 19
9 7 6 5 4 3 1 1 2 4 6 8 9 9 11 12 13 13 13 13 13 15 14 14 15 15 16 16 18 17 16 16 17 17 16 16 17 16 18 19 19 21 20
6 8 7 5 4 3 2 2 4 5 7 8 10 12 12 13 14 15 15 15 15 16 16 17 17 17 18 19 18 17 16 17 17 17 17 15 16 18 20 19 20 21 21
8 8 7 5 4 2 1 3 6 7 7 9 10 11 11 12 13 14 14 14 15 16 17 17 18 18 17 17 16 17 17 18 20 21 21 18 17 18 18 18 21 21 23
9 7 7 5 2 2 2 5 7 7 9 10 12 13 13 12 12 13 14 15 15 16 19 20 20 18 17 16 17 19 20 20 21 23 22 22 21 22 23 22 20 20 23
8 6 4 4 2 2 3 6 7 9 10 12 13 14 15 14 13 14 15 15 16 16 17 18 19 21 20 19 19 19 21 21 21 21 21 23 26 26 23 19 19 20 18
5 4 4 4 4 5 5 5 7 8 9 12 13 14 14 15 14 14 14 15 15 16 17 18 19 21 22 22 21 20 20 21 22 22 21 22 22 23 23 21 17 15 16
10 11 11 9 6 3 4 5 6 8 11 13 14 13 13 14 15 15 15 15 15 15 19 21 22 22 22 22 24 26 25 25 25 27 24 22 20 19 19 18 16 16 16
13 10 5 3 2 3 5 5 7 8 9 11 12 13 14 14 15 15 17 15 14 17 20 21 20 22 24 25 25 26 25 26 25 24 22 20 19 18 17 17 16 15 17
Wind_Direction
334 350 351 343 327 298 264 254 251 251 241 221 209 219 222 230 240 245 250 257 258 256 255 255 255 250 245 244 242 241 236 238 228 223 224 227 233 239 243 242 238 250 252
338 356 5 4 347 336 295 260 248 239 221 208 210 217 214 232 247 254 258 260 261 259 257 254 254 250 247 245 243 239 234 235 222 220 230 226 233 234 234 232 236 250 252
337 345 4 1 358 358 359 18 104 161 178 197 202 229 252 257 266 272 275 274 268 263 259 255 252 253 247 243 246 240 228 232 228 212 207 216 228 228 230 231 233 246 242
341 348 9 356 3 3 12 23 47 56 61 56 37 263 262 265 269 273 284 284 277 268 261 255 252 248 246 245 247 244 230 223 217 218 220 228 223 207 200 205 221 231 237
354 357 13 3 358 12 25 31 49 45 38 41 38 13 278 266 265 292 321 339 321 291 270 260 253 249 247 246 247 237 229 227 216 210 211 218 240 263 163 216 182 217 245
9 18 18 14 16 28 33 35 42 45 39 49 50 49 40 28 63 21 1 347 352 8 5 292 259 250 246 243 243 241 229 217 210 209 206 213 210 227 243 247 273 263 259
27 26 18 12 16 25 33 37 42 41 38 49 50 51 50 36 41 36 14 15 24 11 20 23 29 286 245 241 229 214 208 209 218 221 220 228 225 226 237 239 256 262 270
37 38 14 11 16 24 28 33 41 37 42 51 55 49 53 43 32 38 15 20 23 14 19 30 32 34 41 25 228 245 232 220 214 216 223 245 243 241 242 241 244 236 236
46 39 14 9 20 19 25 32 32 37 41 38 54 53 56 49 37 41 24 19 29 20 18 24 21 22 24 25 40 48 39 231 224 228 238 239 240 248 248 246 241 245 250
61 39 18 354 12 19 19 34 36 36 35 39 36 36 33 39 38 34 26 21 20 20 19 27 26 24 24 18 17 11 11 19 21 13 268 244 245 244 248 245 242 240 246
72 14 352 349 5 2 13 29 41 44 45 43 44 44 40 41 40 36 28 22 21 23 21 22 23 20 20 16 17 12 6 3 350 338 338 3 339 263 255 248 241 230 228
205 299 318 316 316 321 7 26 36 44 40 40 42 39 39 38 35 31 26 21 18 19 18 19 19 18 18 16 12 8 4 0 355 357 355 344 336 328 334 323 300 277 264
216 232 238 251 273 335 20 31 36 38 36 35 35 35 32 29 26 22 17 13 10 10 9 9 8 7 6 7 4 359 358 354 353 351 349 345 341 334 332 318 324 313 274
227 230 230 229 237 338 5 18 17 20 21 19 20 23 19 15 13 11 6 2 2 0 359 358 357 355 354 358 352 348 346 344 344 341 339 335 334 329 324 316 310 309 302
229 231 236 231 221 205 144 50 8 7 7 8 4 2 358 354 351 353 350 348 348 348 348 348 347 348 350 347 342 339 336 334 332 333 330 327 320 328 315 307 301 302 308
229 228 225 225 224 218 211 215 298 344 342 337 338 338 340 342 345 342 339 335 335 334 334 335 335 335 334 331 338 336 329 325 326 325 322 317 318 318 317 314 310 293 286
228 223 221 219 218 221 227 265 332 337 334 340 348 350 344 336 329 327 326 324 323 322 324 327 328 326 324 325 329 327 318 309 309 311 314 316 314 313 310 312 309 308 301
221 220 217 212 205 192 199 315 322 332 338 344 345 343 337 328 322 318 315 316 318 319 320 320 318 318 320 323 325 322 311 300 298 298 296 298 303 308 312 309 305 303 302
228 222 202 186 168 159 149 299 312 327 330 319 313 312 310 306 308 310 312 313 312 314 312 310 309 307 309 313 316 319 310 301 300 301 299 299 302 304 310 309 302 298 297
189 173 163 155 161 166 204 292 321 309 296 303 309 311 312 312 313 314 316 314 312 308 309 305 303 302 305 311 315 317 309 301 301 298 295 293 296 305 311 306 304 301 299
159 151 156 171 175 179 283 295 288 288 294 296 299 304 307 306 304 305 307 306 306 303 302 302 304 304 304 307 311 311 306 301 302 301 299 295 296 298 300 297 295 294 303
157 162 169 173 155 212 256 279 291 304 311 316 316 314 312 310 306 306 309 311 312 312 313 313 312 311 311 308 307 308 303 295 288 287 288 292 296 298 298 299 294 299 301
166 168 171 163 175 216 261 295 315 320 320 319 317 316 315 317 318 314 316 317 318 314 311 310 309 309 310 308 306 303 301 297 287 280 283 286 289 290 291 290 301 305 300
160 152 165 196 208 222 257 286 303 310 311 311 312 313 315 318 319 319 317 316 317 314 311 309 306 305 304 304 304 302 298 293 289 285 282 281 281 281 283 283 289 293 296
173 183 196 201 207 239 293 303 310 314 313 314 316 317 317 318 316 317 316 314 311 309 309 308 308 307 304 302 300 301 301 297 292 291 288 284 277 277 278 281 282 286 288
186 188 194 204 225 271 303 314 314 313 312 313 316 317 315 318 317 318 319 316 309 309 307 303 301 303 299 302 303 302 299 296 295 292 285 284 282 278 281 281 285 289 293